{"data":{"norad_id":66148,"epoch":"2026-09-20T22:48:57.881952Z","epoch_age_seconds":61450,"freshness":"FRESH","line1":"1 66148U 25240C   26263.95066993  .00009636  00000+0  29616-3 0  9994","line2":"2 66148  53.1571 231.5966 0001584  98.0355 262.0828 15.34378681 51942","mean_motion":15.34378681,"eccentricity":0.0001584,"inclination_deg":53.1571,"raan_deg":231.5966,"arg_perigee_deg":98.0355,"mean_anomaly_deg":262.0828,"bstar":0.00029616,"rev_number":5194,"period_min":93.84906202304,"perigee_km":461.68300637044,"apogee_km":463.85020463266,"semimajor_km":6840.9036055015,"source":"CELESTRAK","updated_at":"2026-09-21T09:00:35.812546Z"}}